MIDAS 4 DEB, 195

Orbit data source: Space-Track

MIDAS 4 DEB, 195 is space debris in LEO originally from a launch on Sat, 21 Oct 1961 UTC launched from the Air Force Western Test Range (AFWTR). Debris objects in space refer to the collection of defunct objects orbiting the Earth. Examples of debris include non-operational satellites, rocket bodies, and fragments generated from explosions, collisions, or faulty payload assembly.

Loading next visibility...
Identifier
195, 1961-028D
Orbit
LEO
Country
Flag of USUS
Related business
Manufacturer
Unknown
Mission
Spacecraft
Bus & Motor
Unknown
Mass
~10 kg wet, ~10 kg dry
Launch date (UTC)
1961-10-21 (65 years ago)
Launch vehicle
Unknown
Launch site
Air Force Western Test Range (AFWTR)
Object type
Payload
Rocket body
Debris
Shape & HBR
Unknown shape, 1.1 m
Radar Cross Section
Medium (>0.1 m² and <1 m²)

Expand to show TLE details & history
Last TLE update: 1 week ago

TLE from 1 week ago
0 MIDAS 4 DEB
1 00195U 61028D   26152.07633776  .00000014  00000-0  77970-2 0  9994
2 00195  95.8412 200.9164 0125015  94.7062 266.8078  8.65619709 41632
Epoch: 2026-06-01T01:49Z
TLE epoch observation values (Epoch: 2026-06-01T01:49:55.582Z)
Latitude
-0.00005°
Longitude
-76.13404°
Altitude
3,652.151 km
Speed
6.302 km/s
True Right ascension
13h 23m 39s
True Declination
0° 00' 00"
Sunlit
Object was in daylight at epoch
Visualization orbit readout
Latitude
Unknown
Longitude
Unknown
Altitude
Unknown
Speed
Unknown
Apparent Right ascension
Unknown
Apparent Declination
Unknown
Sunlit
N/A
Visualization observer readout
Local Sidereal Time
04:34:06
Azimuth
Unknown
Elevation
Unknown
Doppler factor
Unknown
Orbital elements
Apogee altitude
3,764.574 km
Perigee altitude
3,514.107 km
Semi-major axis
10,017.477 km
Eccentricity
0.0125
Inclination
95.8412°
RAAN
200.9164°
Arg. of periapsis
94.7062°
True anomaly
265.37885°
Mean anomaly
266.8078°
Eccentric anomaly
266.09318°
Mean motion
2.16474 °/min
Orbital period
166.3 mins
BSTAR
0.007797
Loading maneuver chart data...
Computing Atmospheric mass density...
Loading historical data...
Loading historical data...
Loading historical data...
Loading historical data...
Loading historical data...
Loading historical data...
Loading historical data...

Documentation

Showing up to 5 results
|